STARLINK-32020, 60201

Orbit data source: Space-Track

STARLINK-32020, 60201 is a payload satellite owned by SpaceX/Seattle (US) in LEO that was launched on Wed, 03 Jul 2024 UTC via an FALCON 9 launch vehicle from the Air Force Eastern Test Range (AFETR). Payload-class satellites include a variety of spacecraft equipped with specific instruments for various scientific and technological missions. These include communications satellites like Starlink; space stations such as the ISS; scientific satellites like the Hubble; Earth observation satellites from companies like Planet Labs, Umbra, and HawkEye 360; GPS; miniature CubeSats for education and research; and military/defense satellites.

Loading next visibility...
Identifier
60201, 2024-124U
Orbit
LEO
Country
Flag of USUS
Related business
Manufacturer
SpaceX/Seattle
Mission
Operational Commercial Communications
Bus & Motor
STARLINK V2M, Unknown motor
Mass
730 kg wet, ~700 kg dry
Launch date (UTC)
2024-07-03 (1 year ago)
Launch vehicle
FALCON 9
Launch site
Air Force Eastern Test Range (AFETR)
Object type
Payload
Rocket body
Debris
Shape & HBR
Box + 2 Pan, 17.7 m
Radar Cross Section
33.884 m², Large (>1 m²)

Expand to show TLE details & history
Last TLE update: 6 hours ago

TLE from 6 hours ago
0 STARLINK-32020
1 60201U 24124U   25353.25105046  .00000140  00000-0  16845-4 0  9996
2 60201  53.1629 335.8743 0001342  83.8581 276.2573 15.30193797 81986
Epoch: 2025-12-19T06:01Z
TLE epoch observation values (Epoch: 2025-12-19T06:01:30.759Z)
Latitude
-0.00001°
Longitude
157.40124°
Altitude
476.033 km
Speed
7.629 km/s
True Right ascension
22h 23m 29s
True Declination
0° 00' 00"
Sunlit
Object was in daylight at epoch
Visualization orbit readout
Latitude
Unknown
Longitude
Unknown
Altitude
Unknown
Speed
Unknown
Apparent Right ascension
Unknown
Apparent Declination
Unknown
Sunlit
N/A
Visualization observer readout
Local Sidereal Time
10:54:32
Azimuth
Unknown
Elevation
Unknown
Doppler factor
Unknown
Orbital elements
Apogee altitude
476.409 km
Perigee altitude
474.57 km
Semi-major axis
6,853.627 km
Eccentricity
0.00013
Inclination
53.1629°
RAAN
335.8743°
Arg. of periapsis
83.8581°
True anomaly
276.24201°
Mean anomaly
276.2573°
Eccentric anomaly
276.24966°
Mean motion
3.82527 °/min
Orbital period
94.11 mins
BSTAR
0.000016845
Loading maneuver chart data...
Computing Atmospheric mass density...
Loading historical data...
Loading historical data...
Loading historical data...
Loading historical data...
Loading historical data...
Loading historical data...
Loading historical data...

Documentation

Showing up to 5 results
|